Milford, UT

11:33 PM MDT on May 26, 2018 (GMT -0600)
Milford Municipal

Weather History for KMLF - December, 2013

Change the Weather History Date:

Saturday, December 28, 2013

  Actual Average Record
Temperature  
Mean Temperature 26 °F -  
Max Temperature 36 °F 36 °F 54 °F (2017)
Min Temperature 17 °F 15 °F -5 °F (2007)
Degree Days  
Heating Degree Days 38    
Moisture  
Dew Point 18 °F    
Average Humidity 74    
Maximum Humidity 89    
Minimum Humidity 49    
Precipitation  
Precipitation 0.00 in - - ()
Sea Level Pressure  
Sea Level Pressure 30.22 in    
Wind  
Wind Speed 9 mph (NNW)    
Max Wind Speed 16 mph    
Max Gust Speed -    
Visibility 10 miles    
Events      
Averages and records for this station are not official NWS values.
T = Trace of Precipitation, MM = Missing Value Source: NWS Daily Summary

Daily Weather History Graph

Daily Weather History Graph

Search for Another Location

Airport or City:

Astronomy

Dec. 28, 2013 Rise Set
Actual Time 7:48 AM MST 5:19 PM MST
Civil Twilight 7:18 AM MST 5:48 PM MST
Nautical Twilight 6:45 AM MST 6:22 PM MST
Astronomical Twilight 6:13 AM MST 6:54 PM MST
Moon 3:31 AM MST (12/28) 2:11 PM MST (12/28)
Length of Visible Light 10h 30m
Length of Day
9h 30m
Waning Crescent, 18% of the Moon is Illuminated
Dec 28
Waning Crescent
Jan 1
New
Jan 7
First Quarter
Jan 15
Full
Jan 23
Last Quarter

Hourly Weather History & Observations

Time (MST) Temp. Windchill Dew Point Humidity Pressure Visibility Wind Dir Wind Speed Gust Speed Precip Events Conditions
12:52 AM 21.0 °F 9.9 °F 17.1 °F 85% 30.25 in 10.0 mi SSW 10.4 mph - N/A   Clear
1:52 AM 19.0 °F 10.0 °F 16.0 °F 88% 30.21 in 10.0 mi South 6.9 mph - N/A   Clear
2:52 AM 25.0 °F 15.5 °F 18.0 °F 75% 30.19 in 10.0 mi South 9.2 mph - N/A   Clear
3:52 AM 23.0 °F 12.4 °F 18.0 °F 81% 30.17 in 10.0 mi South 10.4 mph - N/A   Clear
4:52 AM 23.0 °F 14.7 °F 18.0 °F 81% 30.17 in 10.0 mi South 6.9 mph - N/A   Clear
5:52 AM 21.0 °F 11.4 °F 17.1 °F 85% 30.19 in 10.0 mi South 8.1 mph - N/A   Clear
6:52 AM 21.0 °F 12.4 °F 17.1 °F 85% 30.20 in 10.0 mi SSW 6.9 mph - N/A   Clear
7:52 AM 17.1 °F 10.0 °F 14.0 °F 88% 30.22 in 10.0 mi NNW 4.6 mph - N/A   Clear
8:52 AM 19.9 °F 12.1 °F 17.1 °F 89% 30.22 in 10.0 mi North 5.8 mph - N/A   Clear
9:52 AM 24.1 °F 17.0 °F 18.0 °F 77% 30.24 in 10.0 mi NNE 5.8 mph - N/A   Clear
10:52 AM 28.0 °F 19.3 °F 21.0 °F 75% 30.23 in 10.0 mi North 9.2 mph - N/A   Clear
11:52 AM 30.0 °F 21.1 °F 21.9 °F 72% 30.20 in 10.0 mi North 10.4 mph - N/A   Clear
12:52 PM 33.1 °F 24.9 °F 21.9 °F 64% 30.17 in 10.0 mi North 10.4 mph - N/A   Clear
1:52 PM 35.1 °F 25.2 °F 23.0 °F 61% 30.16 in 10.0 mi North 16.1 mph - N/A   Clear
2:52 PM 36.0 °F 27.1 °F 21.9 °F 57% 30.13 in 10.0 mi North 13.8 mph - N/A   Clear
3:52 PM 35.1 °F 25.9 °F 23.0 °F 61% 30.16 in 10.0 mi North 13.8 mph - N/A   Clear
4:52 PM 33.1 °F 24.4 °F 21.0 °F 61% 30.17 in 10.0 mi North 11.5 mph - N/A   Clear
5:52 PM 27.0 °F 17.3 °F 19.0 °F 72% 30.23 in 10.0 mi North 10.4 mph - N/A   Clear
6:52 PM 26.1 °F 14.5 °F 18.0 °F 71% 30.25 in 10.0 mi North 13.8 mph - N/A   Clear
7:52 PM 26.1 °F 15.0 °F 18.0 °F 71% 30.30 in 10.0 mi NNW 12.7 mph - N/A   Clear
8:52 PM 21.0 °F 9.3 °F 16.0 °F 81% 30.32 in 10.0 mi North 11.5 mph - N/A   Clear
9:52 PM 19.9 °F 8.6 °F 16.0 °F 85% 30.32 in 10.0 mi NNE 10.4 mph - N/A   Clear
10:52 PM 21.0 °F 8.6 °F 16.0 °F 81% 30.32 in 10.0 mi NNW 12.7 mph - N/A   Clear
11:52 PM 19.9 °F 7.3 °F 16.0 °F 85% 30.33 in 10.0 mi NNW 12.7 mph - N/A   Partly Cloudy